Location: Ladysmith
(45.4630°N, 91.1040°W)
Time: 05:15:27
(UTC-05:00)

Envisat - Visible Passes

Search period start: 21 September 2018 00:00
Search period end: 01 October 2018 00:00
Orbit: 764 x 766 km, 98.2° (Epoch: 20 September)

Date Brightness Start Highest point End Pass type
(mag) Time Alt. Az. Time Alt. Az. Time Alt. Az.
21 Sep 3.2 19:33:16 10° SE 19:38:11 52° ENE 19:43:07 10° N visible
21 Sep 5.4 21:13:42 10° SW 21:17:30 21° W 21:21:20 10° NW visible
22 Sep 4.1 20:35:40 10° S 20:40:29 44° W 20:45:22 10° NNW visible
23 Sep 3.0 19:58:36 10° SSE 20:03:41 87° ENE 20:08:48 10° NNW visible
23 Sep 5.9 21:41:24 10° WSW 21:43:23 12° W 21:45:23 10° WNW visible
24 Sep 3.4 19:22:19 10° SE 19:27:04 42° ENE 19:31:51 10° N visible
24 Sep 5.1 21:02:01 10° SSW 21:06:14 26° W 21:10:29 10° NW visible
25 Sep 3.7 20:24:19 10° S 20:29:16 55° W 20:34:17 10° NNW visible
26 Sep 3.0 19:47:28 10° SSE 19:52:31 71° ENE 19:57:35 10° N visible
26 Sep 5.8 21:29:06 10° SW 21:32:04 15° W 21:35:02 10° NW visible
27 Sep 4.7 20:50:26 10° SSW 20:54:58 32° W 20:59:32 10° NNW visible
28 Sep 3.3 20:13:01 10° S 20:18:04 69° WSW 20:23:10 10° NNW visible
29 Sep 3.1 19:36:25 10° SSE 19:41:22 57° ENE 19:46:21 10° N visible
29 Sep 5.5 21:17:09 10° SW 21:20:45 19° W 21:24:23 10° NW visible
30 Sep 4.3 20:38:58 10° SSW 20:43:43 40° W 20:48:31 10° NNW visible
